Weather in Salekhard

Russia / Yamalo-Nenets Autonomous Okrug     66°31′47″N   66°36′51″E
temp.,
°C
wind,
m/s
gust,
m/s
humid.,
%
clouds,
%
prec.,
mm/h
press.,
hPa
HPBL,
m
6 august, fri
fri623:00+18se4566100 0.0 101054
02:00+17ese347953 0.0 101052
05:00+18e357317 0.0 1011140
08:00+20se34645 0.0 1011468
11:00+24se46494 0.0 10111640
14:00+26se664241 0.0 10112238
17:00+25se4544100 0.0 10121460
20:00+21e3860100 0.0 1012198
7 august, sat
sat723:00+20e236476 0.1 101366
02:00+17ne457492 0.0 101471
05:00+16e2392100 1.9 101562
08:00+17n599144 4.6 1015251
11:00+23ne675767 4.7 1015797
14:00+26e554551 0.0 10151593
17:00+27ene564312 0.0 10151991
20:00+23ne71158100 0.0 1016448
8 august, sun
sun823:00+19ne7136785 0.0 1016393
02:00+17ne6137391 0.0 1017374
05:00+15ne6118055 0.0 1018355
08:00+16ne6874100 0.0 1018400
11:00+19ne6766100 0.0 1018553
14:00+22ene6657100 0.0 1017809
17:00+23ene55566 0.0 10171000
20:00+19ne69685 0.0 1016379
9 august, mon
mon923:00+15ne7138398 0.0 1017298
02:00+13nne5118789 0.0 1018301
05:00+14ne61185100 0.3 1018345
08:00+14ne51083100 0.2 1018417
11:00+15ne81178100 0.2 1019481
14:00+19ne7962100 0.0 1019838
17:00+18ne81165100 0.0 1019586
20:00+15ne91467100 0.0 1019459
10 august, tue
tue1023:00+14ne8157059 0.0 1020447
02:00+12ne81377100 0.0 1022453
05:00+11ne81481100 0.0 1022508
08:00+12ne10136229 0.0 1023642
11:00+12ne81159100 0.0 1024647
14:00+11ne81364100 0.0 1025625
17:00+12nne2871100 0.3 1025334
20:00+14nne611570 0.0 1025371